Date String (YYYY-MM-DD hh:mm:ss) UTC,Instrument flags,absolute air pressure of the measurement (hPa),sample flow rate (lpm),inlet stack bypass flow (lpm),air temperature of the measurement (°C),ambient temperature measured by the external sensor (°C),aerosol sample conditioner tube jacket temperature (°C),OPC LED temperature (°C),internal box temperature (°C),relative humidity of the measurement (%),span deviation,mass concentration of particles derived from Lorenz-Mie calculation of OPC scattering (μg/m³),mass concentration of particles derived from Lorenz-Mie calculation of OPC scattering (μg/m³),mass concentration of particles derived from Lorenz-Mie calculation of OPC scattering (μg/m³)
DateTimeUTC,F1_M11,P_M11,Q1_M11,Q2_M11,T1_M11,T2_M11,T3_M11,T4_M11,T5_M11,U1_M11,ZSPAN_M11,X2_M11,X0_M11,X1_M11
2023-07-18 08:00:00,SystemResetWarning,0830.2,5.00,000.00,029.2,027.8,000.0,037.6,030.8,15.1,0000.0,0004.11,0010.30,0003.74
2023-07-18 08:01:00,SystemResetWarning,0830.2,5.00,000.00,029.2,027.9,000.0,037.6,030.9,15.8,0000.0,0004.14,0010.47,0003.74
2023-07-18 08:02:00,SystemResetWarning,0830.2,5.00,000.00,029.3,028.1,000.0,037.6,030.9,15.8,0000.0,0004.18,0010.92,0003.74
2023-07-18 08:03:00,SystemResetWarning,0830.2,5.00,000.00,029.3,027.9,000.0,037.6,031.0,15.2,0000.0,0004.22,0011.67,0003.73
2023-07-18 08:04:00,SystemResetWarning,0830.2,5.00,000.00,029.3,026.1,000.0,037.5,030.8,15.0,0000.0,0004.22,0011.63,0003.74
2023-07-18 08:05:00,SystemResetWarning,0830.2,5.01,000.00,029.2,025.4,000.0,037.4,030.6,14.8,0000.0,0004.27,0011.59,0003.75
2023-07-18 08:06:00,SystemResetWarning,0830.2,5.01,000.00,029.1,025.6,000.0,037.4,030.4,15.8,0000.0,0004.31,0011.22,0003.75
2023-07-18 08:07:00,SystemResetWarning,0830.2,4.99,000.00,029.1,025.9,000.0,037.5,030.4,15.8,0000.0,0004.35,0011.28,0003.76
2023-07-18 08:08:00,SystemResetWarning,0830.2,4.99,000.00,029.1,026.3,000.0,037.5,030.5,16.2,0000.0,0004.40,0011.37,0003.77
2023-07-18 08:09:00,SystemResetWarning,0830.3,5.00,000.00,029.1,026.7,000.0,037.5,030.6,16.9,0000.0,0004.39,0010.38,0003.77
2023-07-18 08:10:00,SystemResetWarning,0830.3,5.01,000.00,029.1,027.0,000.0,037.5,030.7,17.9,0000.0,0004.44,0009.77,0003.78
2023-07-18 08:11:00,SystemResetWarning,0830.3,5.00,000.00,029.1,027.3,000.0,037.5,030.7,17.8,0000.0,0004.47,0009.83,0003.78
2023-07-18 08:12:00,SystemResetWarning,0830.2,5.01,000.00,029.1,027.5,000.0,037.6,030.8,17.7,0000.0,0004.49,0009.71,0003.79
2023-07-18 08:13:00,SystemResetWarning,0830.3,5.00,000.00,029.2,027.7,000.0,037.6,030.8,17.4,0000.0,0004.47,0009.29,0003.80
2023-07-18 08:14:00,SystemResetWarning,0830.2,5.00,000.00,029.2,027.8,000.0,037.6,030.9,16.6,0000.0,0004.46,0008.54,0003.81
2023-07-18 08:15:00,SystemResetWarning,0830.3,5.00,000.00,029.2,028.0,000.0,037.6,030.9,17.8,0000.0,0004.47,0008.67,0003.80
2023-07-18 08:16:00,SystemResetWarning,0830.3,5.00,000.00,029.3,028.1,000.0,037.7,031.0,18.4,0000.0,0004.44,0008.75,0003.79
2023-07-18 08:17:00,SystemResetWarning,0830.3,5.00,000.00,029.3,028.2,000.0,037.7,031.0,18.0,0000.0,0004.43,0008.86,0003.78
2023-07-18 08:18:00,SystemResetWarning,0830.3,4.99,000.00,029.4,027.9,000.0,037.7,031.0,17.0,0000.0,0004.40,0009.02,0003.78
2023-07-18 08:19:00,SystemResetWarning,0830.2,4.99,000.00,029.3,026.1,000.0,037.6,030.8,16.4,0000.0,0004.33,0009.06,0003.78
2023-07-18 08:20:00,SystemResetWarning,0830.2,5.01,000.00,029.2,025.5,000.0,037.5,030.6,16.3,0000.0,0004.36,0009.66,0003.78
2023-07-18 08:21:00,SystemResetWarning,0830.2,5.01,000.00,029.2,025.6,000.0,037.5,030.4,16.6,0000.0,0004.36,0009.98,0003.78
2023-07-18 08:22:00,SystemResetWarning,0830.2,5.00,000.00,029.1,026.0,000.0,037.5,030.4,16.3,0000.0,0004.37,0010.14,0003.79
2023-07-18 08:23:00,SystemResetWarning,0830.2,5.00,000.00,029.1,026.4,000.0,037.6,030.5,16.3,0000.0,0004.34,0010.18,0003.78
2023-07-18 08:24:00,SystemResetWarning,0830.3,5.00,000.00,029.1,026.8,000.0,037.6,030.6,16.1,0000.0,0004.35,0010.42,0003.78
2023-07-18 08:25:00,SystemResetWarning,0830.3,5.00,000.00,029.1,027.1,000.0,037.6,030.7,15.9,0000.0,0004.34,0010.71,0003.78
2023-07-18 08:26:00,SystemResetWarning,0830.3,4.99,000.00,029.1,027.3,000.0,037.6,030.8,15.8,0000.0,0004.29,0010.85,0003.78
2023-07-18 08:27:00,SystemResetWarning,0830.3,4.99,000.00,029.2,027.6,000.0,037.6,030.8,15.7,0000.0,0004.28,0010.76,0003.78
2023-07-18 08:28:00,SystemResetWarning,0830.3,5.00,000.00,029.2,027.8,000.0,037.6,030.9,15.7,0000.0,0004.30,0010.51,0003.78
2023-07-18 08:29:00,SystemResetWarning,0830.4,5.01,000.00,029.3,027.9,000.0,037.6,030.9,15.7,0000.0,0004.32,0010.14,0003.78
2023-07-18 08:30:00,SystemResetWarning,0830.4,5.01,000.00,029.3,028.1,000.0,037.7,031.0,15.8,0000.0,0004.33,0010.61,0003.78
2023-07-18 08:31:00,SystemResetWarning,0830.4,5.00,000.00,029.3,028.2,000.0,037.7,031.0,15.9,0000.0,0004.31,0011.12,0003.78
2023-07-18 08:32:00,SystemResetWarning,0830.4,4.99,000.00,029.4,027.7,000.0,037.7,031.0,15.9,0000.0,0004.30,0011.16,0003.78
2023-07-18 08:33:00,SystemResetWarning,0830.4,5.00,000.00,029.3,025.9,000.0,037.6,030.8,16.0,0000.0,0004.30,0011.28,0003.78
2023-07-18 08:34:00,SystemResetWarning,0830.4,5.01,000.00,029.2,025.6,000.0,037.5,030.6,16.1,0000.0,0004.29,0011.68,0003.78
2023-07-18 08:35:00,SystemResetWarning,0830.4,5.00,000.00,029.2,025.8,000.0,037.5,030.5,16.3,0000.0,0004.28,0011.53,0003.77
2023-07-18 08:36:00,SystemResetWarning,0830.4,4.99,000.00,029.1,026.1,000.0,037.6,030.5,16.4,0000.0,0004.24,0011.33,0003.76
2023-07-18 08:37:00,SystemResetWarning,0830.4,5.00,000.00,029.1,026.5,000.0,037.6,030.6,16.3,0000.0,0004.24,0011.43,0003.76
2023-07-18 08:38:00,SystemResetWarning,0830.5,5.00,000.00,029.1,026.8,000.0,037.6,030.7,16.3,0000.0,0004.27,0011.53,0003.77
2023-07-18 08:39:00,SystemResetWarning,0830.7,5.00,000.00,029.2,027.1,000.0,037.6,030.7,16.3,0000.0,0004.27,0012.24,0003.78
2023-07-18 08:40:00,SystemResetWarning,0830.4,5.00,000.00,029.2,027.4,000.0,037.6,030.8,16.4,0000.0,0004.27,0012.45,0003.78
2023-07-18 08:41:00,SystemResetWarning,0830.4,5.00,000.00,029.2,027.6,000.0,037.6,030.8,16.3,0000.0,0004.28,0012.69,0003.78
2023-07-18 08:42:00,SystemResetWarning,0830.4,5.00,000.00,029.3,027.8,000.0,037.7,030.9,16.4,0000.0,0004.30,0012.09,0003.79
2023-07-18 08:43:00,SystemResetWarning,0830.4,5.00,000.00,029.3,028.0,000.0,037.7,030.9,16.3,0000.0,0004.33,0011.19,0003.79
2023-07-18 08:44:00,SystemResetWarning,0830.4,5.00,000.00,029.3,028.1,000.0,037.7,031.0,16.4,0000.0,0004.32,0011.72,0003.80
2023-07-18 08:45:00,SystemResetWarning,0830.5,5.00,000.00,029.4,028.2,000.0,037.7,031.0,16.2,0000.0,0004.38,0011.65,0003.83
2023-07-18 08:46:00,SystemResetWarning,0830.4,4.99,000.00,029.4,027.5,000.0,037.7,031.0,16.0,0000.0,0004.43,0011.72,0003.86
2023-07-18 08:47:00,SystemResetWarning,0830.6,5.00,000.00,029.3,025.8,000.0,037.6,030.8,16.1,0000.0,0004.49,0011.85,0003.90
2023-07-18 08:48:00,SystemResetWarning,0830.4,5.02,000.00,029.3,025.5,000.0,037.5,030.7,16.3,0000.0,0004.60,0011.93,0003.94
2023-07-18 08:49:00,SystemResetWarning,0830.5,5.00,000.00,029.2,025.8,000.0,037.5,030.5,16.3,0000.0,0004.66,0011.63,0003.99
2023-07-18 08:50:00,SystemResetWarning,0830.4,5.00,000.00,029.1,026.2,000.0,037.6,030.5,15.9,0000.0,0004.74,0012.32,0004.03
2023-07-18 08:51:00,SystemResetWarning,0830.4,5.00,000.00,029.1,026.5,000.0,037.6,030.6,15.8,0000.0,0004.76,0012.35,0004.06
2023-07-18 08:52:00,SystemResetWarning,0830.5,5.00,000.00,029.2,026.9,000.0,037.6,030.7,15.8,0000.0,0004.82,0012.51,0004.09
2023-07-18 08:53:00,SystemResetWarning,0830.6,5.00,000.00,029.2,027.2,000.0,037.6,030.7,15.7,0000.0,0004.87,0012.39,0004.13
2023-07-18 08:54:00,SystemResetWarning,0830.6,4.99,000.00,029.2,027.4,000.0,037.6,030.8,15.8,0000.0,0004.89,0012.40,0004.15
2023-07-18 08:55:00,SystemResetWarning,0830.6,5.00,000.00,029.2,027.6,000.0,037.7,030.9,15.8,0000.0,0004.91,0012.37,0004.18
2023-07-18 08:56:00,SystemResetWarning,0830.7,5.00,000.00,029.3,027.8,000.0,037.7,030.9,15.8,0000.0,0004.96,0012.65,0004.19
2023-07-18 08:57:00,SystemResetWarning,0830.7,5.00,000.00,029.3,028.0,000.0,037.7,031.0,15.6,0000.0,0005.01,0013.88,0004.21
2023-07-18 08:58:00,SystemResetWarning,0830.7,5.00,000.00,029.3,028.1,000.0,037.7,031.0,15.3,0000.0,0005.07,0015.19,0004.23
2023-07-18 08:59:00,SystemResetWarning,0830.7,5.00,000.00,029.4,027.9,000.0,037.7,031.0,15.2,0000.0,0005.09,0015.79,0004.23
